[[{"header":{"parameterUnit":"m.s-1","parameterCategory":1,"la1":30.2991,"la2":30.254,"lo1":-89.0895,"lo2":-89.0444,"dy":0.0017,"dx":0.0017,"nx":28,"ny":28,"refTime":"2025-04-29T09:00:00:Z","depth":0,"parameterNumber":2,"parameterNumberName":"U-component_of_WINDS"},"data":[0,0,0,0,0,0,0,0,0,0,0,0,0,0,0,0,0,0,0,0,0,0,0,0,0,0,0,0,0,0,0,0,0,0,0,0,0,0,0,0,0,0,0,0,0,0,0,0,0,0,0,0,0,0,0,0,0,0,-3.5177,-3.5177,0,-3.5174,-3.5174,-3.5174,-3.5117,-3.5115,-3.5114,-3.5113,-3.5111,-3.5112,-3.5113,0,0,0,0,0,0,0,0,0,0,0,0,0,-3.5134,-3.5135,-3.5177,-3.5177,-3.5177,-3.5174,-3.5174,-3.5174,-3.5117,-3.5115,-3.5114,-3.5112,-3.511,-3.5112,-3.5113,0,0,0,0,0,0,0,0,0,0,0,0,0,-3.5144,-3.5136,-3.5177,-3.5148,-3.5146,-3.5174,-3.5174,-3.5174,-3.5117,-3.5115,-3.5113,-3.5111,-3.511,-3.5112,-3.5114,-3.517,0,0,-3.512,-3.5121,0,0,0,0,0,0,0,0,-3.5144,-3.5146,-3.5153,-3.515,-3.5147,-3.5144,-3.5158,-3.5173,-3.5118,-3.5128,-3.5113,-3.511,-3.5124,-3.5124,-3.5129,-3.517,-3.517,-3.512,-3.5121,-3.5122,-3.5122,0,0,0,0,0,0,0,-3.5143,-3.5146,-3.5176,-3.5153,-3.515,-3.5136,-3.5135,-3.5161,-3.5138,-3.5127,-3.5123,-3.5123,-3.5122,-3.5127,-3.5128,-3.517,-3.512,-3.5122,-3.5123,-3.5124,-3.5256,-3.5258,0,0,0,0,0,0,-3.5146,-3.5146,-3.5176,-3.5176,-3.514,-3.5138,-3.5137,-3.5147,-3.5138,-3.5134,-3.5125,-3.5121,-3.5124,-3.5126,-3.5128,-3.5192,-3.5122,-3.5124,-3.5125,-3.5253,-3.5256,-3.5259,0,0,0,0,0,0,-3.5146,-3.515,-3.5176,-3.516,-3.5162,-3.5141,-3.5153,-3.5148,-3.5153,-3.5136,-3.5132,-3.5134,-3.5123,-3.5125,-3.5159,-3.5191,-3.5125,-3.5126,-3.5251,-3.5254,-3.5257,-3.5321,0,0,0,0,0,0,-3.5145,-3.515,-3.5171,-3.516,-3.5163,-3.5208,-3.5155,-3.515,-3.5156,-3.5151,-3.5144,-3.5141,-3.5121,-3.5157,-3.5161,-3.5192,-3.5128,-3.5248,-3.5252,-3.5256,-3.5316,-3.5326,-3.5335,0,0,0,0,0,-3.5143,-3.5189,-3.5172,-3.5176,-3.5189,-3.521,-3.5211,-3.5187,-3.5159,-3.518,-3.5169,-3.5141,-3.5187,-3.5161,-3.5166,-3.5198,-3.5246,-3.5251,-3.5256,-3.5311,-3.5324,-3.5334,0,0,0,0,0,0,-3.5204,-3.5187,-3.5168,-3.5212,-3.5213,-3.52,-3.5225,-3.5202,-3.5211,-3.5205,-3.5175,-3.5174,-3.5213,-3.5209,-3.518,-3.5251,-3.5211,-3.5218,-3.5252,-3.5263,-3.5273,-3.5272,-3.513,0,0,0,0,0,-3.5223,-3.5241,-3.5225,-3.5266,-3.5267,-3.5246,-3.5255,-3.5236,-3.5236,-3.5236,-3.5228,-3.5229,-3.5243,-3.5253,-3.5266,-3.5315,-3.5312,-3.534,-3.5349,-3.5357,-3.5363,-3.5387,-3.5398,-3.5276,-3.5276,-3.5276,0,0,-3.5261,-3.5254,-3.5268,-3.5278,-3.5276,-3.5295,-3.5247,-3.527,-3.5284,-3.524,-3.5271,-3.5265,-3.5264,-3.5306,-3.5324,-3.5304,-3.5396,-3.5364,-3.537,-3.5371,-3.5394,-3.5405,-3.5415,-3.5279,-3.5279,-3.5278,0,0,-3.5341,-3.5338,-3.537,-3.5369,-3.5367,-3.5353,-3.5361,-3.5352,-3.5346,-3.5377,-3.5344,-3.5361,-3.5387,-3.5387,-3.5391,-3.547,-3.5444,-3.5475,-3.5524,-3.5548,-3.5558,-3.5566,-3.5593,-3.5603,-3.5481,-3.5481,-3.5481,0,-3.5389,-3.5416,-3.539,-3.5415,-3.542,-3.538,-3.5412,-3.5413,-3.5416,-3.542,-3.5398,-3.5428,-3.5425,-3.5466,-3.5485,-3.549,-3.5498,-3.5475,-3.5559,-3.5567,-3.5574,-3.5599,-3.561,-3.5485,-3.5485,-3.5484,-3.5484,0,-3.5475,-3.5494,-3.5521,-3.5523,-3.5531,-3.556,-3.5538,-3.5549,-3.5531,-3.5519,-3.5551,-3.5546,-3.5556,-3.5565,-3.5547,-3.5603,-3.559,-3.5564,-3.5523,-3.559,-3.5613,-3.5623,-3.549,-3.5489,-3.5488,-3.5487,0,0,-3.5592,-3.5579,-3.5589,-3.5589,-3.5583,-3.5598,-3.5625,-3.5634,-3.5644,-3.5647,-3.5668,-3.5691,-3.5666,-3.567,-3.5653,-3.5674,-3.5735,-3.5645,-3.5644,-3.566,-3.5795,-3.5813,-3.5825,-3.5719,-3.5721,-3.5722,-3.5794,0,-3.5667,-3.5711,-3.5688,-3.5735,-3.5752,-3.5715,-3.5738,-3.5737,-3.5727,-3.574,-3.573,-3.5746,-3.5713,-3.5715,-3.5735,-3.5724,-3.5762,-3.5719,-3.5737,-3.5738,-3.5737,-3.5837,-3.5857,-3.5926,-3.5803,-3.5805,-3.5806,0,-3.5761,-3.5767,-3.5815,-3.5805,-3.5811,-3.5832,-3.5838,-3.5852,-3.585,-3.5841,-3.5846,-3.5823,-3.5848,-3.5809,-3.5843,-3.5814,-3.5821,-3.5817,-3.5819,-3.5818,-3.5775,-3.5838,-3.5947,-3.5957,-3.582,-3.5819,-3.5818,0,-3.584,-3.586,-3.5891,-3.5892,-3.5882,-3.5897,-3.5894,-3.589,-3.5897,-3.5902,-3.5906,-3.5916,-3.592,-3.5928,-3.5908,-3.5882,-3.5944,-3.5904,-3.5937,-3.5938,-3.5951,-3.595,-3.6061,-3.5958,-3.5958,-3.5958,-3.5958,0,-3.5925,-3.5956,-3.5925,-3.5944,-3.5977,-3.5951,-3.5985,-3.5977,-3.5974,-3.5991,-3.596,-3.5977,-3.595,-3.5964,-3.5949,-3.5978,-3.5981,-3.5975,-3.597,-3.5976,-3.5977,-3.5979,-3.5973,-3.5961,-3.596,-3.5959,-3.5959,0,-3.6018,-3.5999,-3.603,-3.6017,-3.6015,-3.604,-3.6029,-3.6046,-3.6034,-3.6056,-3.6059,-3.604,-3.6055,-3.6036,-3.605,-3.6039,-3.6079,-3.6069,-3.608,-3.6076,-3.6109,-3.6106,-3.6224,-3.6237,-3.6128,-3.6129,-3.613,0,-3.6073,-3.6095,-3.6085,-3.6093,-3.6091,-3.6106,-3.6112,-3.6087,-3.6095,-3.6095,-3.6112,-3.6124,-3.6132,-3.6157,-3.6145,-3.6155,-3.6143,-3.6184,-3.6144,-3.6149,-3.6141,-3.6139,-3.6141,-3.6191,-3.6192,-3.6194,-3.6194,0,-3.6172,-3.6162,-3.6171,-3.6178,-3.6186,-3.619,-3.6192,-3.6201,-3.6175,-3.6186,-3.62,-3.6206,-3.6219,-3.6231,-3.6237,-3.6234,-3.621,-3.6207,-3.6215,-3.6221,-3.6226,-3.6222,-3.61,-3.6204,-3.6203,-3.6202,-3.6202,-3.6202,-3.6247,-3.6264,-3.6259,-3.6271,-3.6269,-3.6272,-3.6286,-3.6276,-3.6287,-3.6295,-3.628,-3.6297,-3.6295,-3.6301,-3.63,-3.6314,-3.6296,-3.6308,-3.6311,-3.6313,-3.6318,-3.6225,-3.6315,-3.6315,-3.6314,-3.6314,-3.6314,0,-3.6343,-3.6338,-3.6349,-3.6352,-3.6361,-3.6337,-3.6337,-3.6347,-3.6362,-3.6361,-3.637,-3.6385,-3.6397,-3.6385,-3.6395,-3.6408,-3.6397,-3.6411,-3.6409,-3.6408,-3.6334,-3.6325,-3.6419,-3.6419,-3.6419,-3.6419,-3.6419,-3.6419,-3.6394,-3.6422,-3.641,-3.6437,-3.6431,-3.6448,-3.645,-3.6452,-3.6451,-3.6469,-3.6478,-3.647,-3.6465,-3.6473,-3.6483,-3.6479,-3.6483,-3.6501,-3.6493,-3.6424,-3.6413,-3.6404,-3.6395,-3.6502,-3.6503,-3.6566,-3.6567,-3.6567]},{"header":{"parameterUnit":"m.s-1","parameterCategory":1,"la1":30.2991,"la2":30.254,"lo1":-89.0895,"lo2":-89.0444,"dy":0.0017,"dx":0.0017,"nx":28,"ny":28,"refTime":"2025-04-29T09:00:00:Z","depth":0,"parameterNumber":3,"parameterNumberName":"V-component_of_WINDS"},"data":[0,0,0,0,0,0,0,0,0,0,0,0,0,0,0,0,0,0,0,0,0,0,0,0,0,0,0,0,0,0,0,0,0,0,0,0,0,0,0,0,0,0,0,0,0,0,0,0,0,0,0,0,0,0,0,0,0,0,5.1433,5.1433,0,5.146,5.146,5.146,5.1406,5.1405,5.1403,5.1401,5.1425,5.1428,5.143,0,0,0,0,0,0,0,0,0,0,0,0,0,5.1331,5.1333,5.1433,5.1433,5.1433,5.146,5.146,5.146,5.1407,5.1404,5.1402,5.14,5.1425,5.1427,5.143,0,0,0,0,0,0,0,0,0,0,0,0,0,5.1368,5.1334,5.1433,5.141,5.1408,5.146,5.146,5.146,5.1407,5.1404,5.1402,5.1399,5.1424,5.1427,5.143,5.1504,0,0,5.1441,5.1442,0,0,0,0,0,0,0,0,5.1366,5.1372,5.1413,5.1412,5.141,5.1427,5.1433,5.1475,5.1408,5.1407,5.1401,5.1398,5.1428,5.1431,5.1441,5.1506,5.1507,5.1441,5.1443,5.1445,5.1446,0,0,0,0,0,0,0,5.1364,5.1371,5.1443,5.1413,5.1412,5.1397,5.1399,5.1441,5.1432,5.1407,5.1403,5.1407,5.1426,5.1438,5.1442,5.1507,5.1441,5.1444,5.1446,5.1448,5.1632,5.1635,0,0,0,0,0,0,5.1364,5.1369,5.1442,5.1444,5.1381,5.1401,5.1404,5.1424,5.1431,5.143,5.141,5.1405,5.1434,5.1438,5.1442,5.1528,5.1445,5.1448,5.145,5.1629,5.1632,5.1636,0,0,0,0,0,0,5.1363,5.1372,5.1441,5.1405,5.1413,5.1406,5.1429,5.1426,5.1438,5.1433,5.1431,5.1424,5.1432,5.1437,5.1489,5.1528,5.1449,5.1453,5.1626,5.163,5.1634,5.1702,0,0,0,0,0,0,5.136,5.1371,5.14,5.1407,5.1415,5.1489,5.1431,5.1428,5.1444,5.1438,5.1446,5.1445,5.143,5.1485,5.1493,5.1532,5.1455,5.1622,5.1628,5.1633,5.1696,5.1708,5.1718,0,0,0,0,0,5.1356,5.1418,5.1402,5.1411,5.1452,5.1492,5.1496,5.148,5.1448,5.1476,5.1473,5.1444,5.1523,5.149,5.1499,5.154,5.162,5.1626,5.1632,5.1691,5.1706,5.1718,0,0,0,0,0,0,5.1415,5.1418,5.1401,5.1466,5.1479,5.1482,5.1517,5.1496,5.1517,5.151,5.1488,5.149,5.1546,5.1548,5.1511,5.1611,5.1566,5.1574,5.1608,5.1621,5.1632,5.163,5.1458,0,0,0,0,0,5.1436,5.1469,5.147,5.1527,5.1535,5.1525,5.1542,5.1528,5.154,5.1545,5.1546,5.1558,5.1585,5.1603,5.1628,5.1697,5.1697,5.1729,5.174,5.1749,5.1756,5.1791,5.1805,5.1657,5.1656,5.1656,0,0,5.1478,5.1484,5.1506,5.1539,5.1547,5.1581,5.153,5.1568,5.1593,5.155,5.1599,5.1601,5.1612,5.1673,5.1699,5.1676,5.1797,5.1757,5.1764,5.1766,5.1799,5.1813,5.1826,5.1661,5.166,5.1659,0,0,5.1573,5.1581,5.163,5.164,5.1654,5.1647,5.1659,5.1666,5.1665,5.1714,5.1683,5.1711,5.1759,5.1768,5.178,5.1878,5.1852,5.1887,5.1944,5.1978,5.199,5.2,5.2034,5.2047,5.1894,5.1895,5.1895,0,5.1623,5.1674,5.1657,5.1698,5.1712,5.1677,5.1725,5.1735,5.1756,5.1766,5.1741,5.18,5.1805,5.1867,5.1891,5.1901,5.1913,5.1885,5.199,5.2,5.2009,5.2041,5.2054,5.1899,5.1898,5.1898,5.1897,0,5.1735,5.1771,5.1809,5.1831,5.185,5.1894,5.1882,5.1903,5.1888,5.1884,5.1933,5.1939,5.1964,5.1978,5.1963,5.2037,5.2022,5.1994,5.1947,5.2028,5.2057,5.207,5.1904,5.1903,5.1902,5.1901,0,0,5.1867,5.1879,5.1893,5.1902,5.1915,5.1942,5.1984,5.201,5.2028,5.2043,5.2077,5.2119,5.2092,5.2105,5.2091,5.2121,5.2198,5.2089,5.2089,5.2108,5.2278,5.2298,5.2313,5.2181,5.2183,5.2185,5.2277,0,5.196,5.2033,5.2019,5.209,5.2122,5.2089,5.2125,5.2137,5.2134,5.216,5.2156,5.2185,5.2149,5.2157,5.2186,5.2182,5.2231,5.2176,5.2211,5.2212,5.2207,5.2329,5.235,5.2436,5.2288,5.229,5.2292,0,5.2078,5.2099,5.2174,5.2181,5.2194,5.2227,5.2249,5.2275,5.2286,5.2282,5.2296,5.2276,5.2317,5.2271,5.2326,5.2288,5.2302,5.2302,5.2305,5.2307,5.2256,5.2332,5.2463,5.2476,5.231,5.2308,5.2307,0,5.2164,5.2212,5.2262,5.2271,5.2281,5.2305,5.231,5.2319,5.2336,5.2355,5.2364,5.2388,5.24,5.2418,5.2404,5.2373,5.2461,5.2414,5.2457,5.2458,5.2476,5.2475,5.261,5.2487,5.2487,5.2487,5.2487,0,5.2269,5.2315,5.2301,5.2332,5.2383,5.2366,5.2416,5.2417,5.2426,5.2455,5.2428,5.2456,5.2437,5.2463,5.2453,5.2499,5.2505,5.2502,5.2498,5.2503,5.2504,5.2511,5.2504,5.249,5.249,5.2489,5.2488,0,5.2374,5.2366,5.2419,5.2424,5.2427,5.2464,5.2468,5.2496,5.2492,5.2529,5.2537,5.253,5.2559,5.2548,5.2579,5.2572,5.263,5.262,5.2627,5.2623,5.2666,5.2662,5.281,5.2828,5.2695,5.2696,5.2697,0,5.244,5.2475,5.2485,5.2503,5.2511,5.2541,5.2557,5.2542,5.256,5.2575,5.2601,5.2629,5.265,5.2698,5.2695,5.2718,5.2707,5.2757,5.271,5.2714,5.2706,5.2704,5.2706,5.2766,5.2768,5.2769,5.277,0,5.2559,5.2553,5.2579,5.2603,5.2624,5.2642,5.2657,5.2674,5.2658,5.268,5.271,5.2727,5.2759,5.2786,5.2807,5.281,5.2787,5.2785,5.2796,5.2801,5.2803,5.2801,5.2651,5.2781,5.278,5.2779,5.2779,5.2778,5.2645,5.2675,5.2686,5.2715,5.2725,5.274,5.2767,5.2766,5.2792,5.2817,5.2806,5.2841,5.2851,5.2876,5.2884,5.291,5.289,5.2906,5.291,5.2914,5.2919,5.28,5.2914,5.2913,5.2913,5.2913,5.2912,0,5.2761,5.2767,5.2794,5.2817,5.284,5.2817,5.2833,5.2853,5.2884,5.2896,5.2918,5.2952,5.2978,5.2977,5.3001,5.3022,5.3012,5.3029,5.3026,5.3027,5.2936,5.2923,5.3036,5.3036,5.3036,5.3036,5.3036,5.3036,5.2824,5.2872,5.2868,5.2921,5.2926,5.296,5.2971,5.2985,5.2994,5.3034,5.3056,5.3055,5.3061,5.3086,5.3108,5.3107,5.3116,5.3137,5.3132,5.3046,5.3034,5.3022,5.301,5.3139,5.314,5.3221,5.3222,5.3222]}]]